RH
21 12 13 16 18 18 18 19 20 21 22 22 22 22 21 22 22 24 25 26 25 24 24 24 24 24 24 23 23 23 24 25 28
17 14 16 18 18 18 20 21 22 23 23 23 22 22 22 22 23 24 25 25 25 25 25 25 26 26 26 25 23 23 23 24 25
17 17 18 18 18 19 21 22 23 24 24 23 23 23 23 22 23 23 24 24 24 25 26 26 27 28 27 27 26 25 24 24 24
18 18 18 18 21 22 23 24 25 25 25 25 25 24 23 23 24 23 24 23 24 27 28 29 29 29 29 28 28 27 27 26 25
18 18 20 20 22 24 25 25 25 25 26 25 25 24 23 24 25 24 24 25 26 28 29 29 30 31 32 32 32 31 30 28 26
19 21 23 24 24 25 26 26 26 26 26 25 25 24 24 25 26 25 24 25 26 27 28 30 33 35 36 36 34 34 33 31 28
22 23 24 26 26 26 27 26 26 26 25 25 25 25 25 27 28 27 26 26 26 27 31 35 38 39 39 39 37 37 36 34 31
27 28 28 28 28 28 28 28 27 26 26 25 24 24 25 27 28 28 27 26 28 31 35 38 41 41 41 42 43 40 37 35 35
32 32 31 32 31 30 29 28 28 27 26 26 26 27 29 29 30 30 30 32 34 36 39 41 42 40 44 45 43 41 37 39 40
36 35 35 35 35 34 31 29 28 28 30 30 31 32 32 33 34 35 36 37 39 41 43 43 43 43 48 49 44 44 44 45 46
40 39 39 37 36 36 36 33 33 32 32 33 35 36 37 37 38 40 41 42 42 43 43 44 44 46 47 48 45 51 49 44 49
43 43 42 40 40 40 40 40 38 38 38 39 39 40 40 42 43 43 43 42 42 41 41 42 42 44 49 51 55 51 50 46 44
45 46 46 45 45 45 44 44 42 42 44 45 44 46 47 47 46 44 43 43 43 43 44 42 44 49 52 47 46 50 41 38 43
54 56 55 54 51 50 49 48 45 45 48 50 49 49 47 47 46 47 45 43 43 43 43 44 46 47 51 50 46 49 48 40 42
66 66 67 63 58 55 54 55 55 53 50 52 52 49 49 48 48 47 47 45 44 41 42 46 48 48 49 48 48 52 49 44 42
77 76 74 72 66 62 59 59 62 62 56 54 49 51 49 46 48 46 44 42 40 41 42 48 49 48 47 48 48 50 45 44 42
84 82 83 77 74 71 67 66 68 68 66 60 55 53 48 46 50 52 51 46 47 47 49 50 48 50 50 52 52 53 45 44 44
94 95 93 93 90 86 79 73 70 73 71 72 67 60 61 62 65 66 64 62 62 56 51 50 46 48 53 59 57 54 47 49 49
98 95 89 84 91 98 94 94 90 90 84 74 69 67 67 70 70 66 63 62 59 57 52 50 51 53 57 57 58 56 52 54 55
91 90 90 95 94 98 98 98 96 91 87 82 77 74 75 74 70 67 64 61 58 57 53 52 52 54 57 59 61 60 60 60 56